Погода в Городке

Беларусь     55°27′44″N   29°58′58″E
темп.,
°C
ветер,
м/с
пор.,
м/с
влажн.,
%
обл.,
%
осадки,
мм/ч
давл.,
гПа
погр.,
м
15 мая, сб
сб1500:00+11в3898100 1.1 1006188
03:00+10вюв249928 1.5 100579
06:00+10ююв229812 0.1 100546
09:00+15ююз238529 0.1 1005436
12:00+17юз447626 1.3 1005989
15:00+18юз457475 5.7 10051038
18:00+16зюз248256 1.6 1005311
21:00+13зюз229018 3.1 100518
16 мая, вс
вс1600:00+11зюз249699 0.3 100681
03:00+10з23977 0.4 100765
06:00+10з23975 0.0 100981
09:00+15з22835 0.0 1010423
12:00+19юз336135 0.0 10101284
15:00+20ююз345323 0.0 10101722
18:00+17ююз2576100 0.2 1010216
21:00+14ююв238398 0.2 101132
17 мая, пн
пн1700:00+12юв348898 0.0 101166
03:00+11юв369498 0.0 1011115
06:00+12вюв3995100 0.0 1011228
09:00+17юв51075100 0.0 1010565
12:00+19юв4667100 0.0 1009913
15:00+21юв3562100 0.2 10071246
18:00+17с2391100 3.4 100577
21:00+14сз4699100 6.6 1003165
18 мая, вт
вт1800:00+14ссв3699100 0.3 1001160
03:00+15юв4998100 0.6 999377
06:00+14юв389999 0.3 999347
09:00+14ю3898100 1.2 999636
12:00+13юз3697100 0.3 1000554
15:00+16зюз468387 0.7 1001949
18:00+14ююз369370 1.1 1002337
21:00+12ююв11958 1.8 100312
19 мая, ср
ср1900:00+11зюз119585 0.1 100312
03:00+11зюз3699100 3.8 1002277
06:00+10з51198100 5.6 1002531
09:00+10з5997100 5.9 1004512
12:00+10з5894100 0.2 1006756
15:00+12зюз6980100 0.4 1007876
18:00+13зюз477411 0.1 1007828
21:00+10зюз410863 0.2 1008355